Regional Weather Roundup
Issued by NWS Columbia, SC

Home | Current Version | Previous Version | Text Only | Print | Product List | Glossary On
Versions: 1 2 3 4 5 6 7 8 9 10 11 12 13 14 15 16 17 18 19 20 21 22 23 24 25 26 27 28 29 30 31 32 33 34 35 36 37 38 39 40 41 42 43 44 45 46 47 48 49 50
000
ASUS42 KCAE 221010
RWRCAE
REGIONAL WEATHER ROUNDUP
NATIONAL WEATHER SERVICE COLUMBIA SC
500 AM EST SAT NOV 22 2014

NOTE: "FAIR" INDICATES FEW OR NO CLOUDS BELOW 12,000 FEET WITH NO
SIGNIFICANT WEATHER AND/OR OBSTRUCTIONS TO VISIBILITY.

NOT ALL STATIONS ARE QUALITY CONTROLLED BY THE NATIONAL
WEATHER SERVICE. USE DATA WITH CAUTION...ESPECIALLY
DEWPOINT OBSERVATIONS.

SCZ001>056-GAZ040-063>065-077-221100-
...UPSTATE SOUTH CAROLINA...

CITY           SKY/WX    TMP DP  RH WIND       PRES   REMARKS
ANDERSON       CLEAR     35  18  49 NE6       30.51R WCI  30
LIBERTY        FAIR      31  22  67 MISG      30.50S
SPARTANBURG    FAIR      32  19  59 N5        30.52S WCI  27
CLEMSON        CLEAR     37  19  48 NE3       30.52R
GREENVILLE     CLEAR     35  15  44 NE8       30.52S WCI  29
GREENWOOD      CLEAR     30  22  72 N5        30.52R WCI  25
GREER          CLEAR     33  16  49 NE5       30.51S WCI  29
ROCK HILL      CLEAR     25  17  72 CALM      30.53S
CHESTER        FAIR      32  16  51 N3        30.53R
LAURENS        FAIR      28  21  74 N5        30.52R WCI  23


...CENTRAL SOUTH CAROLINA...

CITY           SKY/WX    TMP DP  RH WIND       PRES   REMARKS
COLUMBIA APT   CLEAR     36  19  50 NE3       30.52R
COLUMBIA OWENS CLEAR     31  23  72 CALM      30.53S
DARLINGTON     CLEAR     23  18  80 CALM      30.54S
FLORENCE       CLEAR     29  16  58 NE6       30.53S WCI  23
ORANGEBURG     CLEAR     34  20  56 NE6       30.51R WCI  29
SUMTER SHAW    CLEAR     28  17  63 NE7       30.51S WCI  21
NEWBERRY       FAIR      28  21  74 NE6       30.54S WCI  22
AIKEN          FAIR      32  23  69 NE5       30.52S WCI  27
BARNWELL       FAIR      36  27  69 NE5       30.50R WCI  32
CAMDEN         FAIR      28  16  59 CALM      30.54S
LANCASTER      FAIR      27  19  74 CALM      30.53S
WINNSBORO      FAIR      32  18  55 E7        30.51S WCI  26


...EASTERN AND COASTAL SOUTH CAROLINA...

CITY           SKY/WX    TMP DP  RH WIND       PRES   REMARKS
MYRTLE BEACH   CLEAR     34  21  60 N7        30.52R WCI  28
N MYRTLE BCH   CLEAR     33  23  66 NE7       30.52S WCI  27
CONWAY         FAIR      30  25  80 CALM      30.53R
MARION         FAIR      30  19  64 CALM      30.54S
FLORENCE       CLEAR     29  16  58 NE6       30.53S WCI  23
DARLINGTON     CLEAR     23  18  80 CALM      30.54S
CHARLESTON APT CLEAR     36  31  82 NE5       30.49S WCI  32
MOUNT PLEASANT FAIR      36  32  87 CALM      30.50S
WALTERBORO     SUNNY     39  28  65 NE7       30.50R WCI  34
BEAUFORT       CLEAR     44  35  70 NE9       30.46S


...EASTERN GEORGIA...

CITY           SKY/WX    TMP DP  RH WIND       PRES   REMARKS
AUGUSTA BUSH F CLEAR     29  24  82 CALM      30.49S
AUGUSTA DANIEL CLEAR     40  24  53 E6        30.49R
THOMSON        CLEAR     30  30 100 CALM      30.52R
WASHINGTON     FAIR      37  32  81 NE3       30.47S
CLAXTON        FAIR      46  37  71 NE7       30.43S
SYLVANIA       SUNNY     42  35  75 E10       30.45F
STATESBORO     PTCLDY    40  35  80 CALM      30.45R
SAVANNAH       CLEAR     47  37  68 NE6       30.44R


...SOUTHERN NORTH CAROLINA...

CITY           SKY/WX    TMP DP  RH WIND       PRES   REMARKS
CHARLOTTE      CLEAR     30  12  47 CALM      30.53S
MONROE         CLEAR     28  14  55 NE5       30.52S WCI  23
WADESBORO      SUNNY     21  17  85 CALM      30.55S
ROCKINGHAM     SUNNY     26  17  68 N3        30.53S
RUTHERFORDTON  CLEAR     25  20  80 CALM      30.53S
ASHEVILLE      CLEAR     22  17  81 CALM      30.48S

$$



USA.gov is the U.S. government's official web portal to all federal, state and local government web resources and services.